Regional Weather Roundup
Issued by NWS

Home | Current Version | Previous Version | Text Only | Print | Product List | Glossary Off
Versions: 1 2 3 4 5 6 7 8 9 10 11 12 13 14 15 16 17 18 19 20 21 22 23 24 25 26 27 28 29 30 31 32 33 34 35 36 37 38 39 40 41 42 43 44 45 46 47 48 49 50

738
ASUS43 KDMX 290906
RWRIA

WEATHER ROUNDUP FOR IOWA
NATIONAL WEATHER SERVICE DES MOINES IA
400 AM CDT SAT APR 29 2017

NOTE: "FAIR" INDICATES FEW OR NO CLOUDS BELOW 12,000 FEET WITH NO
SIGNIFICANT WEATHER AND/OR OBSTRUCTIONS TO VISIBILITY.

* - THESE STATIONS ARE NOT NWS STATIONS...THUS NOT UNDER NWS
QUALITY CONTROL.  THEY ALSO DO NOT REPORT WEATHER SUCH
AS PRECIPITATION OR FOG.

IAZ001>003-012>014-020>022-031>034-043>046-291000-
   NORTHWEST IOWA

CITY           SKY/WX    TMP DP  RH WIND       PRES   REMARKS
CARROLL *      CLOUDY    41  36  81 NE9G17    30.06R
CHEROKEE *     CLOUDY    37  33  84 N7        30.09F WCI  32
DENISON *      CLOUDY    41  34  75 NE10      30.08R
LE MARS *      CLOUDY    37  30  75 NE7       30.11R WCI  32
ORANGE CITY *  CLOUDY    37  28  70 N10G17    30.08F WCI  30
SHELDON *      CLOUDY    36  28  75 N17       30.06F WCI  25
SIOUX CITY     CLOUDY    41  33  73 N9        30.09R
SPENCER        MOCLDY    37  31  78 N13       30.07F WCI  29
$$

IAZ055>058-069>071-079>083-090>094-291000-
   SOUTHWEST IOWA

CITY           SKY/WX    TMP DP  RH WIND       PRES   REMARKS
ATLANTIC *     CLOUDY    43  36  75 NE13G22   30.05R
AUDUBON *      CLOUDY    39  36  87 NE12      30.05R WCI  32
CLARINDA *       N/A     45  39  81 NE17G25   30.01S
COUNCIL BLFS * CLOUDY    41  37  87 NE14G22   30.02R
CRESTON *      CLOUDY    43  39  87 NE17G26   30.00F
HARLAN  *      CLOUDY    41  36  81 NE15      30.07R
LAMONI         CLOUDY    43  41  93 NE14      29.98S
RED OAK *      CLOUDY    45  37  76 NE20G28   30.03R
SHENANDOAH *   CLOUDY    45  39  81 NE17G23   30.03R
$$

IAZ047>049-059>061-072>074-084-291000-
   CENTRAL IOWA

CITY           SKY/WX    TMP DP  RH WIND       PRES   REMARKS
AMES           CLOUDY    43  37  79 NE9       30.09R
ANKENY *       CLOUDY    43  37  81 NE14      30.07F
BOONE *        CLOUDY    41  37  87 NE13      30.08R
CHARITON *     CLOUDY    43  39  87 NE15G24   30.00S
DES MOINES     CLOUDY    45  36  70 NE16      30.05R
GRINNELL*      CLOUDY    42  38  85 N13       30.05F
KNOXVILLE *    CLOUDY    45  37  76 NE16G24   30.00F
MARSHALLTOWN   CLOUDY    41  37  86 NE14      30.07R
NEWTON *       CLOUDY    43  37  81 NE20      30.03F
PELLA *        CLOUDY    44  38  81 NE10G17   30.03F
PERRY *        CLOUDY    42  36  78 NE10G16   30.08R
$$

IAZ004>006-015-016-023>025-035-036-291000-
   NORTH CENTRAL IOWA

CITY           SKY/WX    TMP DP  RH WIND       PRES   REMARKS
ALGONA *       PTCLDY    36  32  87 NE12      30.07F WCI  27
CLARION *      CLOUDY    39  36  87 NE13      30.08S WCI  32
ESTHERVILLE    CLOUDY    34  31  88 N12       30.09F WCI  25
FORT DODGE *   CLOUDY    39  28  65 NE10      30.07F WCI  32
MASON CITY     PTCLDY    38  31  76 NE10      30.09R WCI  31
FOREST CITY *    N/A     37  30  75 N10       30.07F WCI  30
WEBSTER CITY * CLOUDY    39  34  81 NE12      30.06S WCI  32
IOWA FALLS *     N/A     41  34  76 NE9       30.12R
$$

IAZ007>011-017>019-026>030-037>042-050>054-066-291000-
   NORTHEAST IOWA

CITY           SKY/WX    TMP DP  RH WIND       PRES   REMARKS
CEDAR RAPIDS   CLOUDY    44  40  85 NE17G25   30.02F
CHARLES CITY * CLOUDY    39  34  81 N9        30.10R WCI  33
CLINTON *      CLOUDY    45  42  89 NE18G25   30.03R
DECORAH *      CLOUDY    39  32  75 N7        30.09R WCI  34
DUBUQUE        CLOUDY    44  39  82 NE13      30.08R
MONTICELLO *   CLOUDY    45  39  81 N9        30.06F
OELWEIN *      CLOUDY    41  37  87 NE7       30.14R
WATERLOO       CLOUDY    41  35  79 N7        30.12R
$$

IAZ064-065-067-068-078-291000-
   EAST CENTRAL IOWA

CITY           SKY/WX    TMP DP  RH WIND       PRES   REMARKS
DAVENPORT      CLOUDY    45  42  89 NE18      30.02R
IOWA CITY      CLOUDY    46  40  79 NE15      30.03F
MT. PLEASANT * CLOUDY    44  44 100 NE13      30.00R FOG
MUSCATINE *    CLOUDY    46  43  87 NE21G28   30.03R
QUAD CITIES    CLOUDY    47  42  83 NE13      30.01R
$$

IAZ062-063-075>077-085>089-095>099-291000-
   SOUTHEAST IOWA

CITY           SKY/WX    TMP DP  RH WIND       PRES   REMARKS
BURLINGTON     CLOUDY    48  47  96 NE15      29.98R FOG
FAIRFIELD *    CLOUDY    45  43  93 NE13G22   30.00R
FORT MADISON * CLOUDY    48  46  93 NE12G17   29.98R FOG
KEOKUK *       CLOUDY    48  46  93 NE12      29.99R FOG
OSKALOOSA *    MOCLDY    43  41  91 NE18      30.01R
CENTERVILLE *  CLOUDY    43  43 100 NE6G21    30.01R
OTTUMWA        CLOUDY    45  43  93 NE13      30.01R
WASHINGTON *   CLOUDY    45  45 100 NE17G23   30.02R
$$

ABBREVIATIONS USED IN REMARKS
   TC - TEMPERATURES IN CELSIUS
  WCI - WIND CHILL INDEX
   HX - HEAT INDEX
  VSB - VISIBILITY
$$





USA.gov is the U.S. government's official web portal to all federal, state and local government web resources and services.